When you browse on this site, cookies collect data to enhance your experience and personalize the content and advertising you see.
Visit our Privacy Policy to learn more. By continuing to use the site, you agree to this use of cookies and data.
  • In Schweiz
  • Länderverzeichnis
  • Für 7 Tage
  • Wassertemperatur
  • Wetterkarte
  • Widgets
  • user-avatar
    Anmelden

    Stündliche Wetter Bolshie Leznevichi

    Heute, 24 Februar, Montag

    Zeit Temperatur Niederschläge Wind Luftdruck Luftfeuchtigkeit
    00:00 +1°C° 0 mm 2 m/S 722 mmHg 91%
    01:00 -1°C° 0 mm 2 m/S 722 mmHg 93%
    02:00 -1°C° 0 mm 2 m/S 722 mmHg 94%
    03:00 -1°C° 0 mm 3 m/S 722 mmHg 95%
    04:00 -1°C° 0 mm 3 m/S 722 mmHg 95%
    05:00 -1°C° 0 mm 3 m/S 722 mmHg 96%
    06:00 -2°C° 0 mm 4 m/S 723 mmHg 94%
    07:00 -1°C° 0 mm 5 m/S 724 mmHg 91%
    08:00 -2°C° 0 mm 6 m/S 725 mmHg 88%
    09:00 -2°C° 0.1 mm 6 m/S 725 mmHg 84%
    10:00 -1°C° 0.1 mm 7 m/S 726 mmHg 80%
    11:00 -1°C° 0.1 mm 7 m/S 726 mmHg 75%
    12:00 0°C° 0 mm 7 m/S 727 mmHg 67%
    13:00 +1°C° 0 mm 8 m/S 728 mmHg 59%
    14:00 +2°C° 0 mm 8 m/S 728 mmHg 51%
    15:00 +2°C° 0 mm 7 m/S 729 mmHg 55%
    16:00 +2°C° 0 mm 6 m/S 729 mmHg 58%
    17:00 +1°C° 0 mm 4 m/S 730 mmHg 62%
    18:00 0°C° 0 mm 4 m/S 730 mmHg 66%
    19:00 0°C° 0 mm 3 m/S 731 mmHg 69%
    20:00 -1°C° 0 mm 3 m/S 731 mmHg 73%
    21:00 -1°C° 0 mm 3 m/S 731 mmHg 74%
    22:00 -1°C° 0 mm 2 m/S 731 mmHg 76%
    23:00 -2°C° 0 mm 2 m/S 731 mmHg 77%

    Morgen, 25 Februar, Dienstag

    Zeit Temperatur Niederschläge Wind Luftdruck Luftfeuchtigkeit
    00:00 -2°C° 0 mm 2 m/S 731 mmHg 78%
    01:00 -2°C° 0 mm 2 m/S 730 mmHg 79%
    02:00 -2°C° 0 mm 2 m/S 730 mmHg 80%
    03:00 -2°C° 0 mm 2 m/S 729 mmHg 83%
    04:00 -1°C° 0 mm 3 m/S 729 mmHg 87%
    05:00 -1°C° 0 mm 3 m/S 728 mmHg 90%
    06:00 -1°C° 0 mm 3 m/S 727 mmHg 91%
    07:00 -2°C° 0 mm 4 m/S 727 mmHg 92%
    08:00 -2°C° 0 mm 4 m/S 726 mmHg 92%
    09:00 -2°C° 0.1 mm 5 m/S 725 mmHg 93%
    10:00 -1°C° 0.1 mm 5 m/S 724 mmHg 94%
    11:00 -2°C° 0.1 mm 6 m/S 724 mmHg 94%
    12:00 -2°C° 0.4 mm 6 m/S 723 mmHg 95%
    13:00 -1°C° 0.4 mm 5 m/S 722 mmHg 96%
    14:00 -1°C° 0.4 mm 5 m/S 722 mmHg 96%
    15:00 0°C° 0.1 mm 5 m/S 721 mmHg 95%
    16:00 +1°C° 0.1 mm 5 m/S 721 mmHg 94%
    17:00 +2°C° 0.1 mm 5 m/S 720 mmHg 93%
    18:00 +3°C° 0.1 mm 4 m/S 720 mmHg 92%
    19:00 +3°C° 0.1 mm 4 m/S 720 mmHg 91%
    20:00 +3°C° 0.1 mm 4 m/S 720 mmHg 90%
    21:00 +3°C° 0 mm 4 m/S 720 mmHg 89%
    22:00 +2°C° 0 mm 3 m/S 720 mmHg 89%
    23:00 +2°C° 0 mm 3 m/S 720 mmHg 88%

    übermorgen, 26 Februar, Mittwoch

    Zeit Temperatur Niederschläge Wind Luftdruck Luftfeuchtigkeit
    00:00 +3°C° 0.4 mm 2 m/S 719 mmHg 90%
    01:00 +3°C° 0.4 mm 2 m/S 719 mmHg 92%
    02:00 +3°C° 0.4 mm 2 m/S 719 mmHg 93%
    03:00 +1°C° 0 mm 3 m/S 719 mmHg 91%
    04:00 0°C° 0 mm 3 m/S 719 mmHg 89%
    05:00 -1°C° 0 mm 4 m/S 718 mmHg 87%
    06:00 -1°C° 0 mm 4 m/S 718 mmHg 86%
    07:00 -2°C° 0 mm 4 m/S 719 mmHg 84%
    08:00 -2°C° 0 mm 4 m/S 719 mmHg 83%
    09:00 -1°C° 0 mm 4 m/S 719 mmHg 77%
    10:00 0°C° 0 mm 5 m/S 719 mmHg 71%
    11:00 +1°C° 0 mm 5 m/S 719 mmHg 65%
    12:00 +2°C° 0 mm 5 m/S 719 mmHg 63%
    13:00 +3°C° 0 mm 5 m/S 719 mmHg 60%
    14:00 +3°C° 0 mm 5 m/S 719 mmHg 58%
    15:00 +3°C° 0 mm 5 m/S 719 mmHg 61%
    16:00 +3°C° 0 mm 4 m/S 719 mmHg 64%
    17:00 +3°C° 0 mm 3 m/S 719 mmHg 67%
    18:00 +2°C° 0 mm 3 m/S 719 mmHg 70%
    19:00 +2°C° 0 mm 3 m/S 719 mmHg 73%
    20:00 +1°C° 0 mm 3 m/S 719 mmHg 76%
    21:00 +2°C° 0 mm 2 m/S 719 mmHg 78%
    22:00 +1°C° 0 mm 2 m/S 719 mmHg 80%
    23:00 +1°C° 0 mm 2 m/S 719 mmHg 82%

    27 Februar, Donnerstag

    Zeit Temperatur Niederschläge Wind Luftdruck Luftfeuchtigkeit
    00:00 +1°C° 0 mm 2 m/S 719 mmHg 84%
    01:00 +1°C° 0 mm 2 m/S 719 mmHg 87%
    02:00 +1°C° 0 mm 1 m/S 719 mmHg 89%
    03:00 +1°C° 0 mm 1 m/S 719 mmHg 90%
    04:00 +1°C° 0 mm 1 m/S 719 mmHg 91%
    05:00 +1°C° 0 mm 1 m/S 719 mmHg 92%
    06:00 -1°C° 0.7 mm 2 m/S 719 mmHg 94%
    07:00 -2°C° 0.7 mm 2 m/S 720 mmHg 95%
    08:00 -2°C° 0.7 mm 3 m/S 720 mmHg 97%
    09:00 -3°C° 0.4 mm 4 m/S 721 mmHg 94%
    10:00 -3°C° 0.4 mm 4 m/S 721 mmHg 91%
    11:00 -4°C° 0.4 mm 5 m/S 722 mmHg 88%
    12:00 -2°C° 0.1 mm 5 m/S 722 mmHg 83%
    13:00 -2°C° 0.1 mm 5 m/S 723 mmHg 78%
    14:00 -2°C° 0.1 mm 5 m/S 723 mmHg 73%
    15:00 -2°C° 0 mm 5 m/S 723 mmHg 72%
    16:00 -4°C° 0 mm 5 m/S 724 mmHg 70%
    17:00 -3°C° 0 mm 4 m/S 724 mmHg 69%
    18:00 -4°C° 0 mm 4 m/S 725 mmHg 71%
    19:00 -5°C° 0 mm 3 m/S 725 mmHg 74%
    20:00 -4°C° 0 mm 2 m/S 725 mmHg 76%
    21:00 -5°C° 0 mm 2 m/S 725 mmHg 78%
    22:00 -5°C° 0 mm 2 m/S 726 mmHg 79%
    23:00 -5°C° 0 mm 2 m/S 726 mmHg 80%

    28 Februar, Freitag

    Zeit Temperatur Niederschläge Wind Luftdruck Luftfeuchtigkeit
    00:00 -5°C° 0 mm 2 m/S 726 mmHg 81%
    01:00 -5°C° 0 mm 2 m/S 725 mmHg 82%
    02:00 -6°C° 0 mm 2 m/S 725 mmHg 83%
    03:00 -7°C° 0 mm 3 m/S 725 mmHg 82%
    04:00 -7°C° 0 mm 3 m/S 726 mmHg 82%
    05:00 -7°C° 0 mm 3 m/S 726 mmHg 81%
    06:00 -7°C° 0 mm 3 m/S 726 mmHg 81%
    07:00 -7°C° 0 mm 3 m/S 726 mmHg 80%
    08:00 -7°C° 0 mm 3 m/S 726 mmHg 80%
    09:00 -7°C° 0 mm 4 m/S 726 mmHg 76%
    10:00 -7°C° 0 mm 4 m/S 726 mmHg 72%
    11:00 -5°C° 0 mm 4 m/S 726 mmHg 68%
    12:00 -5°C° 0 mm 4 m/S 727 mmHg 61%
    13:00 -5°C° 0 mm 4 m/S 727 mmHg 55%
    14:00 -4°C° 0 mm 4 m/S 727 mmHg 49%
    15:00 -4°C° 0 mm 4 m/S 727 mmHg 48%
    16:00 -5°C° 0 mm 4 m/S 728 mmHg 47%
    17:00 -5°C° 0 mm 4 m/S 728 mmHg 46%
    18:00 -7°C° 0 mm 4 m/S 728 mmHg 49%
    19:00 -7°C° 0 mm 4 m/S 729 mmHg 51%
    20:00 -8°C° 0 mm 4 m/S 729 mmHg 54%
    21:00 -8°C° 0 mm 4 m/S 730 mmHg 57%
    22:00 -8°C° 0 mm 4 m/S 730 mmHg 60%
    23:00 -8°C° 0 mm 4 m/S 730 mmHg 63%

    29 Februar, Samstag

    Zeit Temperatur Niederschläge Wind Luftdruck Luftfeuchtigkeit
    00:00 -8°C° 0 mm 5 m/S 730 mmHg 66%
    01:00 -8°C° 0 mm 5 m/S 730 mmHg 70%
    02:00 -8°C° 0 mm 5 m/S 731 mmHg 73%
    03:00 -8°C° 0 mm 5 m/S 731 mmHg 75%
    04:00 -8°C° 0 mm 5 m/S 731 mmHg 77%
    05:00 -8°C° 0 mm 5 m/S 731 mmHg 79%
    06:00 -8°C° 0 mm 5 m/S 731 mmHg 80%
    07:00 -8°C° 0 mm 5 m/S 732 mmHg 81%
    08:00 -8°C° 0 mm 5 m/S 732 mmHg 82%
    09:00 -7°C° 0 mm 5 m/S 732 mmHg 72%
    10:00 -6°C° 0 mm 5 m/S 732 mmHg 62%
    11:00 -5°C° 0 mm 5 m/S 733 mmHg 53%
    12:00 -5°C° 0 mm 5 m/S 733 mmHg 49%
    13:00 -3°C° 0 mm 4 m/S 733 mmHg 46%
    14:00 -3°C° 0 mm 4 m/S 733 mmHg 43%
    15:00 -2°C° 0 mm 3 m/S 732 mmHg 46%
    16:00 -2°C° 0 mm 3 m/S 732 mmHg 50%
    17:00 -3°C° 0 mm 2 m/S 732 mmHg 53%
    18:00 -3°C° 0 mm 2 m/S 732 mmHg 57%
    19:00 -2°C° 0 mm 1 m/S 732 mmHg 60%
    20:00 -3°C° 0 mm 1 m/S 733 mmHg 64%
    21:00 -3°C° 0 mm 1 m/S 733 mmHg 65%
    22:00 -3°C° 0 mm 1 m/S 732 mmHg 65%
    23:00 -3°C° 0 mm 1 m/S 732 mmHg 66%
    Mehr zeigen